Location: Poughquag
(41.6090°N, 73.6820°W)
Time: 19:52:15
(UTC-05:00)

A-11 Canister half - Pass Details

Date: 11 December 2023
Orbit: 1526 x 1682 km, 47.3° (Epoch: 23 February)

Event Time Altitude Azimuth Distance (km) Brightness Sun altitude
Rises 18:53:15 0° 261° (W) 4,919 13.0 -26.9°
Reaches altitude 10° 18:56:27 10° 264° (W) 3,938 12.1 -27.5°
Maximum altitude 19:06:35 69° 347° (NNW) 1,777 9.2 -29.4°
Enters shadow 19:09:34 50° 50° (NE) 2,057 9.2 -30.0°
